Saint Bonnet de Bellac- Haute Vienne - France
Donnes mto: mercredi / jeudi, 29/09/2011
Date Horaire Temp. E. Hum. E. P.atmo. Pluie Vent Direction Direction Ensoleilleme Solaire P. de rose Temp au vent Rafales
28/09/2011 22:00 19,2 C 69 % 1023,1 hPa 0,0 mm 0,4 km/h (0 Bft) E 90 0 min 0 W/m 13,4 C 19,2 C 3,6 km/h (1 Bft)
28/09/2011 22:05 19,1 C 70 % 1023,1 hPa 0,0 mm 0,0 km/h (0 Bft) E-SE 112 0 min 0 W/m 13,5 C 19,1 C 0,0 km/h (0 Bft)
28/09/2011 22:10 19,1 C 70 % 1023,2 hPa 0,0 mm 0,0 km/h (0 Bft) E 90 0 min 0 W/m 13,5 C 19,1 C 3,2 km/h (1 Bft)
28/09/2011 22:15 18,9 C 70 % 1023,2 hPa 0,0 mm 0,0 km/h (0 Bft) E-NE 67 0 min 0 W/m 13,3 C 18,9 C 3,2 km/h (1 Bft)
28/09/2011 22:20 18,9 C 70 % 1023,2 hPa 0,0 mm 0,0 km/h (0 Bft) E 90 0 min 0 W/m 13,3 C 18,9 C 0,0 km/h (0 Bft)
28/09/2011 22:25 18,8 C 71 % 1023,2 hPa 0,0 mm 0,4 km/h (0 Bft) E 90 0 min 0 W/m 13,4 C 18,8 C 0,4 km/h (0 Bft)
28/09/2011 22:30 18,8 C 72 % 1023,2 hPa 0,0 mm 1,8 km/h (1 Bft) E 90 0 min 0 W/m 13,6 C 18,8 C 7,2 km/h (2 Bft)
28/09/2011 22:35 18,8 C 73 % 1023,2 hPa 0,0 mm 1,8 km/h (1 Bft) E-NE 67 0 min 0 W/m 13,9 C 18,8 C 2,9 km/h (1 Bft)
28/09/2011 22:40 18,6 C 74 % 1023,2 hPa 0,0 mm 1,8 km/h (1 Bft) SE 135 0 min 0 W/m 13,9 C 18,6 C 1,8 km/h (1 Bft)
28/09/2011 22:45 18,6 C 74 % 1023,2 hPa 0,0 mm 1,1 km/h (1 Bft) E-SE 112 0 min 0 W/m 13,9 C 18,6 C 4,0 km/h (1 Bft)
28/09/2011 22:50 18,6 C 74 % 1023,2 hPa 0,0 mm 2,5 km/h (1 Bft) E-SE 112 0 min 0 W/m 13,9 C 18,6 C 2,5 km/h (1 Bft)
28/09/2011 22:55 18,4 C 74 % 1023,2 hPa 0,0 mm 0,4 km/h (0 Bft) E 90 0 min 0 W/m 13,7 C 18,4 C 0,4 km/h (0 Bft)
28/09/2011 23:00 18,3 C 74 % 1023,2 hPa 0,0 mm 2,5 km/h (1 Bft) E 90 0 min 0 W/m 13,6 C 18,3 C 3,6 km/h (1 Bft)
28/09/2011 23:05 18,2 C 74 % 1023,1 hPa 0,0 mm 0,4 km/h (0 Bft) E 90 0 min 0 W/m 13,5 C 18,2 C 3,2 km/h (1 Bft)
28/09/2011 23:10 18,0 C 75 % 1023,1 hPa 0,0 mm 2,2 km/h (1 Bft) E-SE 112 0 min 0 W/m 13,5 C 18,0 C 3,2 km/h (1 Bft)
28/09/2011 23:15 17,8 C 76 % 1023,1 hPa 0,0 mm 0,7 km/h (0 Bft) E-SE 112 0 min 0 W/m 13,5 C 17,8 C 3,2 km/h (1 Bft)
28/09/2011 23:20 17,8 C 76 % 1023,1 hPa 0,0 mm 0,7 km/h (0 Bft) E-SE 112 0 min 0 W/m 13,5 C 17,8 C 0,7 km/h (0 Bft)
28/09/2011 23:25 17,6 C 76 % 1023,1 hPa 0,0 mm 1,1 km/h (1 Bft) E-SE 112 0 min 0 W/m 13,3 C 17,6 C 3,6 km/h (1 Bft)
28/09/2011 23:30 17,5 C 76 % 1023,1 hPa 0,0 mm 0,4 km/h (0 Bft) SE 135 0 min 0 W/m 13,2 C 17,5 C 0,4 km/h (0 Bft)
28/09/2011 23:35 17,4 C 77 % 1023,2 hPa 0,0 mm 0,4 km/h (0 Bft) E-SE 112 0 min 0 W/m 13,3 C 17,4 C 0,4 km/h (0 Bft)
28/09/2011 23:40 17,3 C 77 % 1023,2 hPa 0,0 mm 1,8 km/h (1 Bft) E 90 0 min 0 W/m 13,2 C 17,3 C 4,0 km/h (1 Bft)
28/09/2011 23:45 17,1 C 77 % 1023,2 hPa 0,0 mm 1,8 km/h (1 Bft) E-SE 112 0 min 0 W/m 13,0 C 17,1 C 4,0 km/h (1 Bft)
28/09/2011 23:50 17,1 C 78 % 1023,1 hPa 0,0 mm 0,7 km/h (0 Bft) E-SE 112 0 min 0 W/m 13,2 C 17,1 C 0,7 km/h (0 Bft)
28/09/2011 23:55 16,9 C 78 % 1023,2 hPa 0,0 mm 0,4 km/h (0 Bft) E 90 0 min 0 W/m 13,0 C 16,9 C 3,2 km/h (1 Bft)
29/09/2011 00:00 16,8 C 78 % 1023,2 hPa 0,0 mm 0,0 km/h (0 Bft) E 90 0 min 0 W/m 12,9 C 16,8 C 0,0 km/h (0 Bft)
29/09/2011 00:05 16,8 C 78 % 1023,1 hPa 0,0 mm 0,0 km/h (0 Bft) SE 135 0 min 0 W/m 12,9 C 16,8 C 0,0 km/h (0 Bft)
29/09/2011 00:10 16,6 C 79 % 1023,1 hPa 0,0 mm 0,0 km/h (0 Bft) E-SE 112 0 min 0 W/m 12,9 C 16,6 C 0,0 km/h (0 Bft)
29/09/2011 00:15 16,5 C 79 % 1023,2 hPa 0,0 mm 1,4 km/h (1 Bft) E 90 0 min 0 W/m 12,8 C 16,5 C 4,0 km/h (1 Bft)
29/09/2011 00:20 16,4 C 79 % 1023,1 hPa 0,0 mm 1,8 km/h (1 Bft) E 90 0 min 0 W/m 12,7 C 16,4 C 4,3 km/h (1 Bft)
29/09/2011 00:25 16,3 C 80 % 1023,1 hPa 0,0 mm 0,4 km/h (0 Bft) E 90 0 min 0 W/m 12,8 C 16,3 C 4,3 km/h (1 Bft)
29/09/2011 00:30 16,3 C 80 % 1023,1 hPa 0,0 mm 0,4 km/h (0 Bft) E-NE 67 0 min 0 W/m 12,8 C 16,3 C 2,9 km/h (1 Bft)
29/09/2011 00:35 16,2 C 80 % 1023,1 hPa 0,0 mm 2,5 km/h (1 Bft) E 90 0 min 0 W/m 12,7 C 16,2 C 4,3 km/h (1 Bft)
29/09/2011 00:40 16,2 C 80 % 1023,1 hPa 0,0 mm 1,1 km/h (1 Bft) E 90 0 min 0 W/m 12,7 C 16,2 C 4,0 km/h (1 Bft)
29/09/2011 00:45 16,1 C 80 % 1023,2 hPa 0,0 mm 0,0 km/h (0 Bft) E-SE 112 0 min 0 W/m 12,6 C 16,1 C 0,0 km/h (0 Bft)
29/09/2011 00:50 16,0 C 80 % 1023,1 hPa 0,0 mm 3,2 km/h (1 Bft) SE 135 0 min 0 W/m 12,5 C 16,0 C 4,3 km/h (1 Bft)
29/09/2011 00:55 15,9 C 81 % 1023,2 hPa 0,0 mm 0,7 km/h (0 Bft) E-SE 112 0 min 0 W/m 12,6 C 15,9 C 3,2 km/h (1 Bft)
29/09/2011 01:00 15,8 C 80 % 1023,2 hPa 0,0 mm 1,4 km/h (1 Bft) SE 135 0 min 0 W/m 12,4 C 15,8 C 3,6 km/h (1 Bft)
29/09/2011 01:05 15,8 C 81 % 1023,3 hPa 0,0 mm 0,0 km/h (0 Bft) S-SE 157 0 min 0 W/m 12,5 C 15,8 C 3,6 km/h (1 Bft)
29/09/2011 01:10 15,8 C 81 % 1023,3 hPa 0,0 mm 0,7 km/h (0 Bft) E 90 0 min 0 W/m 12,5 C 15,8 C 3,2 km/h (1 Bft)
29/09/2011 01:15 15,7 C 82 % 1023,3 hPa 0,0 mm 2,5 km/h (1 Bft) SE 135 0 min 0 W/m 12,6 C 15,7 C 7,2 km/h (2 Bft)
29/09/2011 01:20 15,6 C 82 % 1023,4 hPa 0,0 mm 1,1 km/h (1 Bft) E-SE 112 0 min 0 W/m 12,5 C 15,6 C 4,3 km/h (1 Bft)
29/09/2011 01:25 15,5 C 82 % 1023,4 hPa 0,0 mm 0,0 km/h (0 Bft) SE 135 0 min 0 W/m 12,4 C 15,5 C 0,0 km/h (0 Bft)
29/09/2011 01:30 15,4 C 82 % 1023,3 hPa 0,0 mm 2,9 km/h (1 Bft) E 90 0 min 0 W/m 12,3 C 15,4 C 4,3 km/h (1 Bft)
29/09/2011 01:35 15,4 C 83 % 1023,3 hPa 0,0 mm 1,4 km/h (1 Bft) E 90 0 min 0 W/m 12,5 C 15,4 C 1,4 km/h (1 Bft)
29/09/2011 01:40 15,4 C 83 % 1023,4 hPa 0,0 mm 1,1 km/h (1 Bft) E 90 0 min 0 W/m 12,5 C 15,4 C 4,3 km/h (1 Bft)
29/09/2011 01:45 15,3 C 83 % 1023,4 hPa 0,0 mm 3,2 km/h (1 Bft) E 90 0 min 0 W/m 12,4 C 15,3 C 4,3 km/h (1 Bft)
29/09/2011 01:50 15,3 C 83 % 1023,3 hPa 0,0 mm 2,2 km/h (1 Bft) E 90 0 min 0 W/m 12,4 C 15,3 C 4,3 km/h (1 Bft)
29/09/2011 01:55 15,3 C 83 % 1023,4 hPa 0,0 mm 2,5 km/h (1 Bft) E 90 0 min 0 W/m 12,4 C 15,3 C 3,6 km/h (1 Bft)
29/09/2011 02:00 15,2 C 83 % 1023,4 hPa 0,0 mm 2,2 km/h (1 Bft) SE 135 0 min 0 W/m 12,3 C 15,2 C 4,0 km/h (1 Bft)
29/09/2011 02:05 15,2 C 83 % 1023,4 hPa 0,0 mm 0,0 km/h (0 Bft) E-SE 112 0 min 0 W/m 12,3 C 15,2 C 0,0 km/h (0 Bft)
29/09/2011 02:10 15,1 C 83 % 1023,4 hPa 0,0 mm 0,7 km/h (0 Bft) SE 135 0 min 0 W/m 12,2 C 15,1 C 3,6 km/h (1 Bft)
29/09/2011 02:15 15,1 C 83 % 1023,5 hPa 0,0 mm 0,7 km/h (0 Bft) SE 135 0 min 0 W/m 12,2 C 15,1 C 3,2 km/h (1 Bft)
29/09/2011 02:20 15,1 C 83 % 1023,5 hPa 0,0 mm 0,7 km/h (0 Bft) E-SE 112 0 min 0 W/m 12,2 C 15,1 C 3,2 km/h (1 Bft)
29/09/2011 02:25 15,1 C 83 % 1023,5 hPa 0,0 mm 0,0 km/h (0 Bft) E 90 0 min 0 W/m 12,2 C 15,1 C 0,0 km/h (0 Bft)
29/09/2011 02:30 14,9 C 83 % 1023,4 hPa 0,0 mm 2,2 km/h (1 Bft) E-SE 112 0 min 0 W/m 12,0 C 14,9 C 5,8 km/h (2 Bft)
29/09/2011 02:35 14,9 C 82 % 1023,4 hPa 0,0 mm 0,7 km/h (0 Bft) E-SE 112 0 min 0 W/m 11,9 C 14,9 C 4,0 km/h (1 Bft)
29/09/2011 02:40 14,9 C 82 % 1023,4 hPa 0,0 mm 2,9 km/h (1 Bft) E 90 0 min 0 W/m 11,9 C 14,9 C 4,0 km/h (1 Bft)
29/09/2011 02:45 14,9 C 82 % 1023,4 hPa 0,0 mm 3,2 km/h (1 Bft) E 90 0 min 0 W/m 11,9 C 14,9 C 4,0 km/h (1 Bft)
29/09/2011 02:50 15,0 C 81 % 1023,4 hPa 0,0 mm 2,2 km/h (1 Bft) E-SE 112 0 min 0 W/m 11,8 C 15,0 C 3,2 km/h (1 Bft)
29/09/2011 02:55 15,1 C 81 % 1023,4 hPa 0,0 mm 2,2 km/h (1 Bft) E-NE 67 0 min 0 W/m 11,9 C 15,1 C 4,0 km/h (1 Bft)
29/09/2011 03:02 15,1 C 80 % 1023,4 hPa 0,0 mm 4,3 km/h (1 Bft) E 90 0 min 0 W/m 11,7 C 15,1 C 6,5 km/h (2 Bft)
29/09/2011 03:05 15,1 C 80 % 1023,3 hPa 0,0 mm 1,8 km/h (1 Bft) E 90 0 min 0 W/m 11,7 C 15,1 C 4,3 km/h (1 Bft)
29/09/2011 03:10 15,0 C 80 % 1023,3 hPa 0,0 mm 1,8 km/h (1 Bft) E 90 0 min 0 W/m 11,6 C 15,0 C 7,2 km/h (2 Bft)
29/09/2011 03:15 14,9 C 80 % 1023,4 hPa 0,0 mm 3,6 km/h (1 Bft) E-SE 112 0 min 0 W/m 11,5 C 14,9 C 6,8 km/h (2 Bft)
29/09/2011 03:20 14,9 C 80 % 1023,4 hPa 0,0 mm 4,0 km/h (1 Bft) E 90 0 min 0 W/m 11,5 C 14,9 C 7,6 km/h (2 Bft)
29/09/2011 03:25 14,8 C 79 % 1023,4 hPa 0,0 mm 5,4 km/h (2 Bft) E-SE 112 0 min 0 W/m 11,2 C 14,8 C 6,1 km/h (2 Bft)
29/09/2011 03:30 14,8 C 79 % 1023,4 hPa 0,0 mm 3,6 km/h (1 Bft) E 90 0 min 0 W/m 11,2 C 14,8 C 3,6 km/h (1 Bft)
29/09/2011 03:35 14,9 C 79 % 1023,5 hPa 0,0 mm 2,5 km/h (1 Bft) E-SE 112 0 min 0 W/m 11,3 C 14,9 C 2,5 km/h (1 Bft)
29/09/2011 03:40 14,9 C 78 % 1023,5 hPa 0,0 mm 2,9 km/h (1 Bft) E-SE 112 0 min 0 W/m 11,1 C 14,9 C 4,0 km/h (1 Bft)
29/09/2011 03:45 14,9 C 78 % 1023,5 hPa 0,0 mm 0,4 km/h (0 Bft) E-SE 112 0 min 0 W/m 11,1 C 14,9 C 0,4 km/h (0 Bft)
29/09/2011 03:50 14,8 C 77 % 1023,5 hPa 0,0 mm 1,4 km/h (1 Bft) E 90 0 min 0 W/m 10,8 C 14,8 C 3,2 km/h (1 Bft)
29/09/2011 03:55 14,8 C 77 % 1023,4 hPa 0,0 mm 0,7 km/h (0 Bft) SE 135 0 min 0 W/m 10,8 C 14,8 C 3,2 km/h (1 Bft)
29/09/2011 04:00 14,8 C 77 % 1023,3 hPa 0,0 mm 1,1 km/h (1 Bft) E-SE 112 0 min 0 W/m 10,8 C 14,8 C 4,3 km/h (1 Bft)
29/09/2011 04:05 14,8 C 76 % 1023,3 hPa 0,0 mm 0,4 km/h (0 Bft) E-SE 112 0 min 0 W/m 10,6 C 14,8 C 4,0 km/h (1 Bft)
29/09/2011 04:10 14,8 C 76 % 1023,3 hPa 0,0 mm 1,4 km/h (1 Bft) E 90 0 min 0 W/m 10,6 C 14,8 C 3,2 km/h (1 Bft)
29/09/2011 04:15 14,8 C 76 % 1023,2 hPa 0,0 mm 1,8 km/h (1 Bft) E-SE 112 0 min 0 W/m 10,6 C 14,8 C 1,8 km/h (1 Bft)
29/09/2011 04:20 14,8 C 76 % 1023,2 hPa 0,0 mm 1,4 km/h (1 Bft) E 90 0 min 0 W/m 10,6 C 14,8 C 4,3 km/h (1 Bft)
29/09/2011 04:25 14,7 C 76 % 1023,3 hPa 0,0 mm 0,0 km/h (0 Bft) E 90 0 min 0 W/m 10,5 C 14,7 C 3,2 km/h (1 Bft)
29/09/2011 04:30 14,8 C 76 % 1023,3 hPa 0,0 mm 2,2 km/h (1 Bft) E-SE 112 0 min 0 W/m 10,6 C 14,8 C 3,6 km/h (1 Bft)
29/09/2011 04:35 14,8 C 76 % 1023,2 hPa 0,0 mm 0,4 km/h (0 Bft) E-SE 112 0 min 0 W/m 10,6 C 14,8 C 3,6 km/h (1 Bft)
29/09/2011 04:40 14,9 C 75 % 1023,3 hPa 0,0 mm 2,2 km/h (1 Bft) E 90 0 min 0 W/m 10,5 C 14,9 C 4,3 km/h (1 Bft)
29/09/2011 04:45 14,9 C 75 % 1023,2 hPa 0,0 mm 2,9 km/h (1 Bft) E-SE 112 0 min 0 W/m 10,5 C 14,9 C 5,8 km/h (2 Bft)
29/09/2011 04:50 15,0 C 74 % 1023,2 hPa 0,0 mm 1,1 km/h (1 Bft) E-SE 112 0 min 0 W/m 10,4 C 15,0 C 1,1 km/h (1 Bft)
29/09/2011 04:55 15,0 C 74 % 1023,2 hPa 0,0 mm 1,1 km/h (1 Bft) SE 135 0 min 0 W/m 10,4 C 15,0 C 3,6 km/h (1 Bft)
29/09/2011 05:00 15,0 C 74 % 1023,2 hPa 0,0 mm 1,8 km/h (1 Bft) E-SE 112 0 min 0 W/m 10,4 C 15,0 C 4,3 km/h (1 Bft)
29/09/2011 05:05 15,0 C 74 % 1023,2 hPa 0,0 mm 0,0 km/h (0 Bft) E 90 0 min 0 W/m 10,4 C 15,0 C 0,0 km/h (0 Bft)
29/09/2011 05:10 15,0 C 74 % 1023,2 hPa 0,0 mm 1,8 km/h (1 Bft) SE 135 0 min 0 W/m 10,4 C 15,0 C 4,0 km/h (1 Bft)
29/09/2011 05:15 14,9 C 74 % 1023,2 hPa 0,0 mm 0,0 km/h (0 Bft) E-SE 112 0 min 0 W/m 10,3 C 14,9 C 2,9 km/h (1 Bft)
29/09/2011 05:20 14,9 C 74 % 1023,2 hPa 0,0 mm 0,0 km/h (0 Bft) SE 135 0 min 0 W/m 10,3 C 14,9 C 2,9 km/h (1 Bft)
29/09/2011 05:25 15,0 C 74 % 1023,1 hPa 0,0 mm 0,0 km/h (0 Bft) E-SE 112 0 min 0 W/m 10,4 C 15,0 C 3,2 km/h (1 Bft)
29/09/2011 05:30 15,0 C 74 % 1023,1 hPa 0,0 mm 1,1 km/h (1 Bft) E-SE 112 0 min 0 W/m 10,4 C 15,0 C 4,0 km/h (1 Bft)
29/09/2011 05:35 15,1 C 73 % 1023,2 hPa 0,0 mm 0,7 km/h (0 Bft) E-NE 67 0 min 0 W/m 10,3 C 15,1 C 2,9 km/h (1 Bft)
29/09/2011 05:40 15,0 C 73 % 1023,1 hPa 0,0 mm 1,8 km/h (1 Bft) E-SE 112 0 min 0 W/m 10,2 C 15,0 C 3,6 km/h (1 Bft)
29/09/2011 05:45 14,9 C 73 % 1023,1 hPa 0,0 mm 1,1 km/h (1 Bft) E 90 0 min 0 W/m 10,1 C 14,9 C 4,3 km/h (1 Bft)
29/09/2011 05:50 14,9 C 73 % 1023,2 hPa 0,0 mm 0,7 km/h (0 Bft) E 90 0 min 0 W/m 10,1 C 14,9 C 3,2 km/h (1 Bft)
29/09/2011 05:55 14,9 C 73 % 1023,2 hPa 0,0 mm 2,9 km/h (1 Bft) E 90 0 min 0 W/m 10,1 C 14,9 C 4,3 km/h (1 Bft)
29/09/2011 06:00 14,9 C 73 % 1023,2 hPa 0,0 mm 0,4 km/h (0 Bft) E-NE 67 0 min 0 W/m 10,1 C 14,9 C 0,4 km/h (0 Bft)
29/09/2011 06:05 14,9 C 73 % 1023,2 hPa 0,0 mm 1,1 km/h (1 Bft) E-SE 112 0 min 0 W/m 10,1 C 14,9 C 1,1 km/h (1 Bft)
29/09/2011 06:10 14,9 C 73 % 1023,3 hPa 0,0 mm 1,8 km/h (1 Bft) E-SE 112 0 min 0 W/m 10,1 C 14,9 C 3,2 km/h (1 Bft)
29/09/2011 06:15 14,9 C 72 % 1023,2 hPa 0,0 mm 0,4 km/h (0 Bft) E 90 0 min 0 W/m 9,9 C 14,9 C 0,4 km/h (0 Bft)
29/09/2011 06:20 15,0 C 72 % 1023,2 hPa 0,0 mm 1,1 km/h (1 Bft) E 90 0 min 0 W/m 10,0 C 15,0 C 3,6 km/h (1 Bft)
29/09/2011 06:25 15,0 C 72 % 1023,3 hPa 0,0 mm 3,2 km/h (1 Bft) E-SE 112 0 min 0 W/m 10,0 C 15,0 C 4,3 km/h (1 Bft)
29/09/2011 06:30 15,0 C 72 % 1023,3 hPa 0,0 mm 0,7 km/h (0 Bft) E 90 0 min 0 W/m 10,0 C 15,0 C 0,7 km/h (0 Bft)
29/09/2011 06:35 14,9 C 72 % 1023,3 hPa 0,0 mm 0,4 km/h (0 Bft) E 90 0 min 0 W/m 9,9 C 14,9 C 3,6 km/h (1 Bft)
29/09/2011 06:40 15,0 C 71 % 1023,3 hPa 0,0 mm 2,2 km/h (1 Bft) E 90 0 min 0 W/m 9,8 C 15,0 C 4,7 km/h (1 Bft)
29/09/2011 06:45 14,9 C 71 % 1023,3 hPa 0,0 mm 0,7 km/h (0 Bft) E 90 0 min 0 W/m 9,7 C 14,9 C 3,2 km/h (1 Bft)
29/09/2011 06:50 15,1 C 71 % 1023,3 hPa 0,0 mm 1,8 km/h (1 Bft) E-SE 112 0 min 0 W/m 9,9 C 15,1 C 2,9 km/h (1 Bft)
29/09/2011 06:55 15,1 C 71 % 1023,3 hPa 0,0 mm 1,1 km/h (1 Bft) SE 135 0 min 0 W/m 9,9 C 15,1 C 4,3 km/h (1 Bft)
29/09/2011 07:00 15,1 C 70 % 1023,3 hPa 0,0 mm 1,1 km/h (1 Bft) E 90 0 min 0 W/m 9,7 C 15,1 C 2,9 km/h (1 Bft)
29/09/2011 07:05 15,2 C 70 % 1023,3 hPa 0,0 mm 1,4 km/h (1 Bft) E-SE 112 0 min 0 W/m 9,8 C 15,2 C 4,0 km/h (1 Bft)
29/09/2011 07:10 15,3 C 70 % 1023,3 hPa 0,0 mm 3,6 km/h (1 Bft) SE 135 0 min 0 W/m 9,9 C 15,3 C 6,5 km/h (2 Bft)
29/09/2011 07:15 15,3 C 69 % 1023,3 hPa 0,0 mm 1,8 km/h (1 Bft) E 90 0 min 0 W/m 9,6 C 15,3 C 4,3 km/h (1 Bft)
29/09/2011 07:20 15,3 C 69 % 1023,2 hPa 0,0 mm 2,5 km/h (1 Bft) SE 135 0 min 0 W/m 9,6 C 15,3 C 4,0 km/h (1 Bft)
29/09/2011 07:25 15,4 C 69 % 1023,3 hPa 0,0 mm 3,2 km/h (1 Bft) E 90 0 min 0 W/m 9,7 C 15,4 C 3,6 km/h (1 Bft)
29/09/2011 07:30 15,3 C 69 % 1023,2 hPa 0,0 mm 0,7 km/h (0 Bft) E-SE 112 0 min 0 W/m 9,6 C 15,3 C 3,2 km/h (1 Bft)
29/09/2011 07:35 15,3 C 69 % 1023,3 hPa 0,0 mm 1,8 km/h (1 Bft) E-SE 112 0 min 0 W/m 9,6 C 15,3 C 4,0 km/h (1 Bft)
29/09/2011 07:40 15,3 C 69 % 1023,3 hPa 0,0 mm 1,8 km/h (1 Bft) E-SE 112 0 min 0 W/m 9,6 C 15,3 C 4,3 km/h (1 Bft)
29/09/2011 07:45 15,3 C 69 % 1023,4 hPa 0,0 mm 0,4 km/h (0 Bft) E-SE 112 0 min 0 W/m 9,6 C 15,3 C 3,6 km/h (1 Bft)
29/09/2011 07:50 15,3 C 68 % 1023,4 hPa 0,0 mm 2,5 km/h (1 Bft) E 90 0 min 0 W/m 9,4 C 15,3 C 4,3 km/h (1 Bft)
29/09/2011 07:55 15,2 C 68 % 1023,4 hPa 0,0 mm 2,9 km/h (1 Bft) E 90 0 min 0 W/m 9,3 C 15,2 C 4,0 km/h (1 Bft)
29/09/2011 08:00 15,2 C 68 % 1023,5 hPa 0,0 mm 1,4 km/h (1 Bft) E-SE 112 0 min 0 W/m 9,3 C 15,2 C 4,0 km/h (1 Bft)
29/09/2011 08:05 15,2 C 68 % 1023,5 hPa 0,0 mm 1,8 km/h (1 Bft) E-SE 112 2 min 0 W/m 9,3 C 15,2 C 1,8 km/h (1 Bft)
29/09/2011 08:10 15,2 C 68 % 1023,6 hPa 0,0 mm 1,8 km/h (1 Bft) E 90 2 min 0 W/m 9,3 C 15,2 C 4,3 km/h (1 Bft)
29/09/2011 08:15 15,2 C 68 % 1023,6 hPa 0,0 mm 0,0 km/h (0 Bft) E-SE 112 2 min 0 W/m 9,3 C 15,2 C 3,6 km/h (1 Bft)
29/09/2011 08:20 15,2 C 68 % 1023,7 hPa 0,0 mm 0,4 km/h (0 Bft) E 90 2 min 0 W/m 9,3 C 15,2 C 0,4 km/h (0 Bft)
29/09/2011 08:25 15,2 C 68 % 1023,7 hPa 0,0 mm 0,7 km/h (0 Bft) SE 135 0 min 0 W/m 9,3 C 15,2 C 3,6 km/h (1 Bft)
29/09/2011 08:30 15,2 C 68 % 1023,7 hPa 0,0 mm 2,2 km/h (1 Bft) E-SE 112 0 min 0 W/m 9,3 C 15,2 C 4,0 km/h (1 Bft)
29/09/2011 08:35 15,3 C 68 % 1023,9 hPa 0,0 mm 0,7 km/h (0 Bft) E 90 0 min 0 W/m 9,4 C 15,3 C 3,2 km/h (1 Bft)
29/09/2011 08:40 15,3 C 68 % 1023,9 hPa 0,0 mm 2,2 km/h (1 Bft) E 90 0 min 0 W/m 9,4 C 15,3 C 2,2 km/h (1 Bft)
29/09/2011 08:45 15,4 C 67 % 1023,9 hPa 0,0 mm 2,9 km/h (1 Bft) E-SE 112 0 min 0 W/m 9,3 C 15,4 C 4,3 km/h (1 Bft)
29/09/2011 08:50 15,6 C 67 % 1024,0 hPa 0,0 mm 0,4 km/h (0 Bft) E-SE 112 0 min 0 W/m 9,5 C 15,6 C 0,4 km/h (0 Bft)
29/09/2011 08:55 15,8 C 67 % 1024,0 hPa 0,0 mm 0,0 km/h (0 Bft) E-SE 112 0 min 0 W/m 9,7 C 15,8 C 0,0 km/h (0 Bft)
29/09/2011 09:00 16,1 C 67 % 1024,0 hPa 0,0 mm 0,0 km/h (0 Bft) E 90 0 min 0 W/m 10,0 C 16,1 C 4,0 km/h (1 Bft)
29/09/2011 09:05 16,4 C 67 % 1024,1 hPa 0,0 mm 0,0 km/h (0 Bft) E 90 0 min 0 W/m 10,3 C 16,4 C 0,0 km/h (0 Bft)
29/09/2011 09:10 16,7 C 67 % 1024,1 hPa 0,0 mm 0,0 km/h (0 Bft) E 90 0 min 0 W/m 10,5 C 16,7 C 0,0 km/h (0 Bft)
29/09/2011 09:15 17,1 C 66 % 1024,1 hPa 0,0 mm 0,0 km/h (0 Bft) E 90 0 min 0 W/m 10,7 C 17,1 C 0,0 km/h (0 Bft)
29/09/2011 09:20 17,4 C 66 % 1024,2 hPa 0,0 mm 1,1 km/h (1 Bft) E 90 0 min 0 W/m 11,0 C 17,4 C 2,9 km/h (1 Bft)
29/09/2011 09:25 17,7 C 65 % 1024,1 hPa 0,0 mm 1,8 km/h (1 Bft) E 90 0 min 0 W/m 11,0 C 17,7 C 3,6 km/h (1 Bft)
29/09/2011 09:30 17,9 C 65 % 1024,1 hPa 0,0 mm 0,0 km/h (0 Bft) E 90 0 min 0 W/m 11,2 C 17,9 C 1,4 km/h (1 Bft)
29/09/2011 09:35 18,3 C 64 % 1024,2 hPa 0,0 mm 0,4 km/h (0 Bft) E 90 0 min 0 W/m 11,4 C 18,3 C 0,4 km/h (0 Bft)
29/09/2011 09:40 18,6 C 64 % 1024,2 hPa 0,0 mm 0,4 km/h (0 Bft) E 90 0 min 0 W/m 11,7 C 18,6 C 0,4 km/h (0 Bft)
29/09/2011 09:45 19,1 C 64 % 1024,3 hPa 0,0 mm 0,0 km/h (0 Bft) E 90 0 min 0 W/m 12,1 C 19,1 C 0,0 km/h (0 Bft)
29/09/2011 09:50 19,4 C 63 % 1024,3 hPa 0,0 mm 0,0 km/h (0 Bft) E 90 0 min 0 W/m 12,2 C 19,4 C 0,0 km/h (0 Bft)
29/09/2011 09:55 19,8 C 62 % 1024,4 hPa 0,0 mm 0,0 km/h (0 Bft) E 90 0 min 0 W/m 12,3 C 19,8 C 0,0 km/h (0 Bft)
29/09/2011 10:00 20,3 C 61 % 1024,4 hPa 0,0 mm 0,0 km/h (0 Bft) E 90 0 min 0 W/m 12,5 C 20,3 C 0,0 km/h (0 Bft)
29/09/2011 10:05 20,6 C 61 % 1024,4 hPa 0,0 mm 0,0 km/h (0 Bft) E 90 0 min 0 W/m 12,8 C 20,6 C 0,0 km/h (0 Bft)
29/09/2011 10:10 21,3 C 60 % 1024,5 hPa 0,0 mm 0,0 km/h (0 Bft) E 90 0 min 0 W/m 13,2 C 21,3 C 0,0 km/h (0 Bft)
29/09/2011 10:15 21,6 C 59 % 1024,5 hPa 0,0 mm 0,0 km/h (0 Bft) S-SE 157 0 min 0 W/m 13,2 C 21,6 C 0,0 km/h (0 Bft)
29/09/2011 10:20 22,0 C 59 % 1024,5 hPa 0,0 mm 0,0 km/h (0 Bft) S-SE 157 0 min 0 W/m 13,6 C 22,0 C 0,0 km/h (0 Bft)
29/09/2011 10:25 22,5 C 59 % 1024,6 hPa 0,0 mm 1,1 km/h (1 Bft) E-SE 112 0 min 0 W/m 14,1 C 22,5 C 3,6 km/h (1 Bft)
29/09/2011 10:30 22,9 C 58 % 1024,6 hPa 0,0 mm 1,8 km/h (1 Bft) S-SE 157 0 min 0 W/m 14,2 C 22,9 C 6,8 km/h (2 Bft)
29/09/2011 10:35 23,3 C 53 % 1024,6 hPa 0,0 mm 2,9 km/h (1 Bft) S 180 0 min 0 W/m 13,2 C 23,3 C 6,8 km/h (2 Bft)
29/09/2011 10:40 23,9 C 50 % 1024,5 hPa 0,0 mm 1,4 km/h (1 Bft) S 180 0 min 0 W/m 12,8 C 23,9 C 1,4 km/h (1 Bft)
29/09/2011 10:45 24,4 C 50 % 1024,6 hPa 0,0 mm 3,6 km/h (1 Bft) S-SE 157 0 min 0 W/m 13,3 C 24,4 C 6,8 km/h (2 Bft)
29/09/2011 10:50 24,8 C 48 % 1024,6 hPa 0,0 mm 4,7 km/h (1 Bft) S 180 0 min 0 W/m 13,0 C 24,8 C 4,7 km/h (1 Bft)
29/09/2011 10:55 25,3 C 48 % 1024,5 hPa 0,0 mm 4,3 km/h (1 Bft) S-SE 157 0 min 0 W/m 13,5 C 25,3 C 4,3 km/h (1 Bft)
29/09/2011 11:00 25,6 C 46 % 1024,6 hPa 0,0 mm 1,4 km/h (1 Bft) S-SO 202 0 min 0 W/m 13,1 C 25,6 C 5,0 km/h (1 Bft)
29/09/2011 11:05 25,9 C 47 % 1024,6 hPa 0,0 mm 1,1 km/h (1 Bft) S 180 0 min 0 W/m 13,7 C 25,9 C 2,9 km/h (1 Bft)
29/09/2011 11:10 26,2 C 45 % 1024,6 hPa 0,0 mm 6,5 km/h (2 Bft) E-SE 112 0 min 0 W/m 13,3 C 26,2 C 6,5 km/h (2 Bft)
29/09/2011 11:15 26,4 C 43 % 1024,6 hPa 0,0 mm 4,0 km/h (1 Bft) S-SE 157 0 min 0 W/m 12,8 C 26,4 C 7,9 km/h (2 Bft)
29/09/2011 11:20 26,7 C 41 % 1024,6 hPa 0,0 mm 4,7 km/h (1 Bft) S 180 0 min 0 W/m 12,3 C 26,7 C 6,1 km/h (2 Bft)
29/09/2011 11:25 26,9 C 42 % 1024,6 hPa 0,0 mm 6,1 km/h (2 Bft) S 180 0 min 0 W/m 12,9 C 26,9 C 10,4 km/h (2 Bft)
29/09/2011 11:30 27,1 C 41 % 1024,6 hPa 0,0 mm 2,9 km/h (1 Bft) S 180 0 min 0 W/m 12,7 C 27,1 C 4,3 km/h (1 Bft)
29/09/2011 11:35 27,4 C 40 % 1024,6 hPa 0,0 mm 3,6 km/h (1 Bft) S 180 0 min 0 W/m 12,6 C 27,4 C 4,3 km/h (1 Bft)
29/09/2011 11:40 27,5 C 40 % 1024,6 hPa 0,0 mm 6,5 km/h (2 Bft) S 180 0 min 0 W/m 12,7 C 27,5 C 10,8 km/h (2 Bft)
29/09/2011 11:45 27,5 C 39 % 1024,6 hPa 0,0 mm 3,6 km/h (1 Bft) S 180 0 min 0 W/m 12,3 C 27,5 C 7,2 km/h (2 Bft)
29/09/2011 11:50 27,5 C 39 % 1024,6 hPa 0,0 mm 8,6 km/h (2 Bft) S 180 0 min 0 W/m 12,3 C 27,5 C 14,8 km/h (3 Bft)
29/09/2011 11:55 27,5 C 38 % 1024,7 hPa 0,0 mm 4,7 km/h (1 Bft) S 180 0 min 0 W/m 11,9 C 27,5 C 7,9 km/h (2 Bft)
29/09/2011 12:00 27,5 C 39 % 1024,6 hPa 0,0 mm 8,3 km/h (2 Bft) S 180 0 min 0 W/m 12,3 C 27,5 C 14,4 km/h (3 Bft)
29/09/2011 12:05 27,6 C 39 % 1024,7 hPa 0,0 mm 5,8 km/h (2 Bft) S-SO 202 0 min 0 W/m 12,4 C 27,6 C 6,5 km/h (2 Bft)
29/09/2011 12:10 27,7 C 38 % 1024,7 hPa 0,0 mm 4,3 km/h (1 Bft) S 180 0 min 0 W/m 12,1 C 27,7 C 11,9 km/h (2 Bft)
29/09/2011 12:15 27,8 C 38 % 1024,6 hPa 0,0 mm 4,3 km/h (1 Bft) S 180 0 min 0 W/m 12,2 C 27,8 C 6,5 km/h (2 Bft)
29/09/2011 12:20 27,9 C 38 % 1024,6 hPa 0,0 mm 8,3 km/h (2 Bft) S-SE 157 0 min 0 W/m 12,2 C 27,9 C 9,4 km/h (2 Bft)
29/09/2011 12:25 27,8 C 37 % 1024,6 hPa 0,0 mm 6,8 km/h (2 Bft) S 180 0 min 0 W/m 11,8 C 27,8 C 10,4 km/h (2 Bft)
29/09/2011 12:30 27,9 C 38 % 1024,7 hPa 0,0 mm 7,9 km/h (2 Bft) SO 225 0 min 0 W/m 12,2 C 27,9 C 7,9 km/h (2 Bft)
29/09/2011 12:35 28,1 C 38 % 1024,5 hPa 0,0 mm 6,8 km/h (2 Bft) S 180 0 min 0 W/m 12,4 C 28,1 C 9,0 km/h (2 Bft)
29/09/2011 12:40 28,2 C 37 % 1024,6 hPa 0,0 mm 7,2 km/h (2 Bft) S 180 0 min 0 W/m 12,1 C 28,2 C 9,4 km/h (2 Bft)
29/09/2011 12:45 28,3 C 38 % 1024,6 hPa 0,0 mm 4,0 km/h (1 Bft) S 180 0 min 0 W/m 12,6 C 28,3 C 8,6 km/h (2 Bft)
29/09/2011 12:50 28,5 C 37 % 1024,5 hPa 0,0 mm 2,2 km/h (1 Bft) S-SO 202 0 min 0 W/m 12,4 C 28,5 C 2,9 km/h (1 Bft)
29/09/2011 12:55 28,6 C 37 % 1024,6 hPa 0,0 mm 6,1 km/h (2 Bft) S-SE 157 0 min 0 W/m 12,5 C 28,6 C 12,6 km/h (3 Bft)
29/09/2011 13:00 28,6 C 36 % 1024,6 hPa 0,0 mm 8,6 km/h (2 Bft) S-SO 202 0 min 0 W/m 12,0 C 28,6 C 11,5 km/h (2 Bft)
29/09/2011 13:05 28,6 C 37 % 1024,5 hPa 0,0 mm 2,5 km/h (1 Bft) S 180 0 min 0 W/m 12,5 C 28,6 C 3,6 km/h (1 Bft)
29/09/2011 13:10 28,8 C 35 % 1024,4 hPa 0,0 mm 6,8 km/h (2 Bft) S-SE 157 0 min 0 W/m 11,8 C 28,8 C 6,8 km/h (2 Bft)
29/09/2011 13:15 28,8 C 36 % 1024,4 hPa 0,0 mm 3,6 km/h (1 Bft) S-SO 202 0 min 0 W/m 12,2 C 28,8 C 4,3 km/h (1 Bft)
29/09/2011 13:20 28,8 C 35 % 1024,6 hPa 0,0 mm 5,8 km/h (2 Bft) S-SO 202 0 min 0 W/m 11,8 C 28,8 C 8,3 km/h (2 Bft)
29/09/2011 13:25 28,8 C 35 % 1024,6 hPa 0,0 mm 13,0 km/h (3 Bft) S 180 0 min 0 W/m 11,8 C 28,8 C 13,3 km/h (3 Bft)
29/09/2011 13:30 28,7 C 34 % 1024,6 hPa 0,0 mm 7,9 km/h (2 Bft) S-SO 202 0 min 0 W/m 11,3 C 28,7 C 13,0 km/h (3 Bft)
29/09/2011 13:35 28,6 C 35 % 1024,6 hPa 0,0 mm 5,4 km/h (2 Bft) S-SO 202 0 min 0 W/m 11,6 C 28,6 C 10,4 km/h (2 Bft)
29/09/2011 13:40 28,4 C 35 % 1024,6 hPa 0,0 mm 9,4 km/h (2 Bft) S 180 0 min 0 W/m 11,4 C 28,4 C 16,6 km/h (3 Bft)
29/09/2011 13:45 28,3 C 36 % 1024,6 hPa 0,0 mm 7,6 km/h (2 Bft) S-SE 157 0 min 0 W/m 11,8 C 28,3 C 11,2 km/h (2 Bft)
29/09/2011 13:50 28,3 C 35 % 1024,6 hPa 0,0 mm 9,0 km/h (2 Bft) S 180 0 min 0 W/m 11,4 C 28,3 C 11,9 km/h (2 Bft)
29/09/2011 13:55 28,4 C 35 % 1024,6 hPa 0,0 mm 6,5 km/h (2 Bft) S 180 0 min 0 W/m 11,4 C 28,4 C 11,5 km/h (2 Bft)
29/09/2011 14:00 28,5 C 35 % 1024,5 hPa 0,0 mm 7,9 km/h (2 Bft) SO 225 0 min 0 W/m 11,5 C 28,5 C 7,9 km/h (2 Bft)
29/09/2011 14:05 28,6 C 35 % 1024,6 hPa 0,0 mm 5,4 km/h (2 Bft) S 180 0 min 0 W/m 11,6 C 28,6 C 9,7 km/h (2 Bft)
29/09/2011 14:10 28,6 C 35 % 1024,5 hPa 0,0 mm 4,0 km/h (1 Bft) S 180 0 min 0 W/m 11,6 C 28,6 C 9,7 km/h (2 Bft)
29/09/2011 14:15 28,7 C 35 % 1024,4 hPa 0,0 mm 2,9 km/h (1 Bft) S-SE 157 0 min 0 W/m 11,7 C 28,7 C 10,1 km/h (2 Bft)
29/09/2011 14:20 28,8 C 36 % 1024,2 hPa 0,0 mm 2,2 km/h (1 Bft) S 180 0 min 0 W/m 12,2 C 28,8 C 8,6 km/h (2 Bft)
29/09/2011 14:25 28,9 C 34 % 1024,2 hPa 0,0 mm 5,4 km/h (2 Bft) S 180 0 min 0 W/m 11,4 C 28,9 C 6,8 km/h (2 Bft)
29/09/2011 14:30 28,9 C 35 % 1024,2 hPa 0,0 mm 6,8 km/h (2 Bft) S 180 0 min 0 W/m 11,9 C 28,9 C 9,0 km/h (2 Bft)
29/09/2011 14:35 28,9 C 33 % 1024,2 hPa 0,0 mm 4,3 km/h (1 Bft) SE 135 0 min 0 W/m 11,0 C 28,9 C 4,3 km/h (1 Bft)
29/09/2011 14:40 29,1 C 34 % 1024,1 hPa 0,0 mm 9,0 km/h (2 Bft) S 180 0 min 0 W/m 11,6 C 29,1 C 13,7 km/h (3 Bft)
29/09/2011 14:45 29,2 C 34 % 1024,1 hPa 0,0 mm 3,6 km/h (1 Bft) S 180 0 min 0 W/m 11,7 C 29,2 C 7,6 km/h (2 Bft)
29/09/2011 14:50 29,3 C 34 % 1024,0 hPa 0,0 mm 2,9 km/h (1 Bft) O 270 0 min 0 W/m 11,8 C 29,3 C 7,6 km/h (2 Bft)
29/09/2011 14:55 29,3 C 34 % 1023,8 hPa 0,0 mm 1,1 km/h (1 Bft) S-SE 157 0 min 0 W/m 11,8 C 29,3 C 3,6 km/h (1 Bft)
29/09/2011 15:00 29,4 C 35 % 1023,7 hPa 0,0 mm 0,4 km/h (0 Bft) S-SE 157 0 min 0 W/m 12,3 C 29,4 C 0,4 km/h (0 Bft)
29/09/2011 15:05 29,5 C 35 % 1023,7 hPa 0,0 mm 0,4 km/h (0 Bft) S 180 0 min 0 W/m 12,4 C 29,5 C 3,2 km/h (1 Bft)
29/09/2011 15:10 29,6 C 35 % 1023,7 hPa 0,0 mm 1,4 km/h (1 Bft) SE 135 0 min 0 W/m 12,5 C 29,6 C 4,0 km/h (1 Bft)
29/09/2011 15:15 29,5 C 35 % 1023,5 hPa 0,0 mm 4,7 km/h (1 Bft) S 180 0 min 0 W/m 12,4 C 29,5 C 11,2 km/h (2 Bft)
29/09/2011 15:20 29,4 C 35 % 1023,4 hPa 0,0 mm 0,0 km/h (0 Bft) SO 225 0 min 0 W/m 12,3 C 29,4 C 0,0 km/h (0 Bft)
29/09/2011 15:25 29,5 C 35 % 1023,3 hPa 0,0 mm 2,5 km/h (1 Bft) S-SE 157 0 min 0 W/m 12,4 C 29,5 C 6,5 km/h (2 Bft)
29/09/2011 15:30 29,5 C 35 % 1023,3 hPa 0,0 mm 1,1 km/h (1 Bft) S 180 0 min 0 W/m 12,4 C 29,5 C 3,2 km/h (1 Bft)
29/09/2011 15:35 29,5 C 35 % 1023,3 hPa 0,0 mm 4,3 km/h (1 Bft) SE 135 0 min 0 W/m 12,4 C 29,5 C 8,3 km/h (2 Bft)
29/09/2011 15:40 29,5 C 35 % 1023,2 hPa 0,0 mm 5,8 km/h (2 Bft) S-SE 157 0 min 0 W/m 12,4 C 29,5 C 9,7 km/h (2 Bft)
29/09/2011 15:45 29,4 C 35 % 1023,1 hPa 0,0 mm 0,0 km/h (0 Bft) S-SO 202 0 min 0 W/m 12,3 C 29,4 C 0,0 km/h (0 Bft)
29/09/2011 15:50 29,3 C 35 % 1023,1 hPa 0,0 mm 0,7 km/h (0 Bft) S-SO 202 0 min 0 W/m 12,2 C 29,3 C 4,3 km/h (1 Bft)
29/09/2011 15:55 29,3 C 34 % 1023,1 hPa 0,0 mm 3,6 km/h (1 Bft) SE 135 0 min 0 W/m 11,8 C 29,3 C 7,2 km/h (2 Bft)
29/09/2011 16:00 29,2 C 34 % 1023,1 hPa 0,0 mm 4,0 km/h (1 Bft) S-SO 202 0 min 0 W/m 11,7 C 29,2 C 4,0 km/h (1 Bft)
29/09/2011 16:05 29,3 C 35 % 1023,1 hPa 0,0 mm 0,0 km/h (0 Bft) S-SE 157 0 min 0 W/m 12,2 C 29,3 C 0,0 km/h (0 Bft)
29/09/2011 16:10 29,3 C 35 % 1023,0 hPa 0,0 mm 2,5 km/h (1 Bft) SE 135 0 min 0 W/m 12,2 C 29,3 C 4,0 km/h (1 Bft)
29/09/2011 16:15 29,2 C 34 % 1023,1 hPa 0,0 mm 1,8 km/h (1 Bft) SE 135 0 min 0 W/m 11,7 C 29,2 C 2,9 km/h (1 Bft)
29/09/2011 16:20 29,1 C 34 % 1023,0 hPa 0,0 mm 7,2 km/h (2 Bft) SE 135 0 min 0 W/m 11,6 C 29,1 C 11,2 km/h (2 Bft)
29/09/2011 16:25 29,1 C 34 % 1022,9 hPa 0,0 mm 1,4 km/h (1 Bft) E-SE 112 0 min 0 W/m 11,6 C 29,1 C 4,0 km/h (1 Bft)
29/09/2011 16:30 29,1 C 34 % 1022,9 hPa 0,0 mm 1,1 km/h (1 Bft) E 90 0 min 0 W/m 11,6 C 29,1 C 1,1 km/h (1 Bft)
29/09/2011 16:35 29,1 C 34 % 1022,9 hPa 0,0 mm 2,2 km/h (1 Bft) SE 135 0 min 0 W/m 11,6 C 29,1 C 6,5 km/h (2 Bft)
29/09/2011 16:40 28,9 C 34 % 1022,8 hPa 0,0 mm 1,8 km/h (1 Bft) SE 135 0 min 0 W/m 11,4 C 28,9 C 3,6 km/h (1 Bft)
29/09/2011 16:45 28,9 C 34 % 1022,7 hPa 0,0 mm 2,2 km/h (1 Bft) E 90 0 min 0 W/m 11,4 C 28,9 C 2,2 km/h (1 Bft)
29/09/2011 16:50 28,9 C 34 % 1022,7 hPa 0,0 mm 1,1 km/h (1 Bft) S 180 0 min 0 W/m 11,4 C 28,9 C 1,1 km/h (1 Bft)
29/09/2011 16:55 28,9 C 35 % 1022,7 hPa 0,0 mm 0,7 km/h (0 Bft) SE 135 0 min 0 W/m 11,9 C 28,9 C 0,7 km/h (0 Bft)
29/09/2011 17:00 28,9 C 35 % 1022,6 hPa 0,0 mm 3,2 km/h (1 Bft) SE 135 0 min 0 W/m 11,9 C 28,9 C 4,7 km/h (1 Bft)
29/09/2011 17:05 28,9 C 35 % 1022,7 hPa 0,0 mm 2,5 km/h (1 Bft) S 180 0 min 0 W/m 11,9 C 28,9 C 3,6 km/h (1 Bft)
29/09/2011 17:10 28,9 C 35 % 1022,6 hPa 0,0 mm 0,0 km/h (0 Bft) O-SO 247 0 min 0 W/m 11,9 C 28,9 C 0,0 km/h (0 Bft)
29/09/2011 17:15 28,9 C 35 % 1022,6 hPa 0,0 mm 1,4 km/h (1 Bft) S 180 0 min 0 W/m 11,9 C 28,9 C 3,6 km/h (1 Bft)
29/09/2011 17:20 28,8 C 35 % 1022,6 hPa 0,0 mm 3,2 km/h (1 Bft) S-SO 202 0 min 0 W/m 11,8 C 28,8 C 6,1 km/h (2 Bft)
29/09/2011 17:25 28,8 C 35 % 1022,6 hPa 0,0 mm 2,5 km/h (1 Bft) S 180 0 min 0 W/m 11,8 C 28,8 C 7,2 km/h (2 Bft)
29/09/2011 17:30 28,8 C 35 % 1022,5 hPa 0,0 mm 3,2 km/h (1 Bft) S-SE 157 0 min 0 W/m 11,8 C 28,8 C 6,8 km/h (2 Bft)
29/09/2011 17:35 28,7 C 35 % 1022,6 hPa 0,0 mm 1,8 km/h (1 Bft) SO 225 0 min 0 W/m 11,7 C 28,7 C 3,6 km/h (1 Bft)
29/09/2011 17:40 28,6 C 36 % 1022,6 hPa 0,0 mm 0,0 km/h (0 Bft) S-SO 202 0 min 0 W/m 12,0 C 28,6 C 3,2 km/h (1 Bft)
29/09/2011 17:45 28,6 C 35 % 1022,5 hPa 0,0 mm 3,2 km/h (1 Bft) S-SO 202 0 min 0 W/m 11,6 C 28,6 C 6,8 km/h (2 Bft)
29/09/2011 17:50 28,6 C 36 % 1022,5 hPa 0,0 mm 1,1 km/h (1 Bft) S 180 0 min 0 W/m 12,0 C 28,6 C 4,3 km/h (1 Bft)
29/09/2011 17:55 28,5 C 36 % 1022,4 hPa 0,0 mm 1,8 km/h (1 Bft) SE 135 0 min 0 W/m 12,0 C 28,5 C 4,3 km/h (1 Bft)
29/09/2011 18:00 28,4 C 36 % 1022,4 hPa 0,0 mm 2,2 km/h (1 Bft) S 180 0 min 0 W/m 11,9 C 28,4 C 2,9 km/h (1 Bft)
29/09/2011 18:05 28,4 C 36 % 1022,3 hPa 0,0 mm 1,8 km/h (1 Bft) S 180 0 min 0 W/m 11,9 C 28,4 C 4,3 km/h (1 Bft)
29/09/2011 18:10 28,3 C 37 % 1022,3 hPa 0,0 mm 0,0 km/h (0 Bft) S 180 0 min 0 W/m 12,2 C 28,3 C 0,0 km/h (0 Bft)
29/09/2011 18:15 28,3 C 36 % 1022,4 hPa 0,0 mm 0,0 km/h (0 Bft) SE 135 0 min 0 W/m 11,8 C 28,3 C 0,0 km/h (0 Bft)
29/09/2011 18:20 28,3 C 37 % 1022,3 hPa 0,0 mm 0,7 km/h (0 Bft) S-SE 157 0 min 0 W/m 12,2 C 28,3 C 0,7 km/h (0 Bft)
29/09/2011 18:25 28,1 C 37 % 1022,3 hPa 0,0 mm 0,0 km/h (0 Bft) S-SE 157 0 min 0 W/m 12,0 C 28,1 C 0,0 km/h (0 Bft)
29/09/2011 18:30 28,1 C 38 % 1022,3 hPa 0,0 mm 0,0 km/h (0 Bft) S-SE 157 0 min 0 W/m 12,4 C 28,1 C 0,0 km/h (0 Bft)
29/09/2011 18:35 28,0 C 38 % 1022,4 hPa 0,0 mm 1,4 km/h (1 Bft) S-SE 157 0 min 0 W/m 12,3 C 28,0 C 4,0 km/h (1 Bft)
29/09/2011 18:40 27,9 C 38 % 1022,3 hPa 0,0 mm 0,4 km/h (0 Bft) S-SE 157 0 min 0 W/m 12,2 C 27,9 C 0,4 km/h (0 Bft)
29/09/2011 18:45 27,8 C 38 % 1022,4 hPa 0,0 mm 0,0 km/h (0 Bft) S-SE 157 0 min 0 W/m 12,2 C 27,8 C 0,0 km/h (0 Bft)
29/09/2011 18:50 27,8 C 39 % 1022,4 hPa 0,0 mm 0,4 km/h (0 Bft) S-SE 157 0 min 0 W/m 12,6 C 27,8 C 0,4 km/h (0 Bft)
29/09/2011 18:55 27,6 C 39 % 1022,5 hPa 0,0 mm 0,0 km/h (0 Bft) S-SE 157 0 min 0 W/m 12,4 C 27,6 C 0,0 km/h (0 Bft)
29/09/2011 19:00 27,4 C 39 % 1022,4 hPa 0,0 mm 0,0 km/h (0 Bft) S-SO 202 0 min 0 W/m 12,2 C 27,4 C 0,0 km/h (0 Bft)
29/09/2011 19:05 27,1 C 40 % 1022,5 hPa 0,0 mm 0,0 km/h (0 Bft) S-SO 202 0 min 0 W/m 12,3 C 27,1 C 0,0 km/h (0 Bft)
29/09/2011 19:10 26,8 C 41 % 1022,4 hPa 0,0 mm 0,0 km/h (0 Bft) S-SO 202 0 min 0 W/m 12,4 C 26,8 C 0,0 km/h (0 Bft)
29/09/2011 19:15 26,4 C 41 % 1022,5 hPa 0,0 mm 0,0 km/h (0 Bft) S-SO 202 0 min 0 W/m 12,1 C 26,4 C 0,0 km/h (0 Bft)
29/09/2011 19:20 26,1 C 42 % 1022,5 hPa 0,0 mm 0,0 km/h (0 Bft) S-SO 202 0 min 0 W/m 12,2 C 26,1 C 0,0 km/h (0 Bft)
29/09/2011 19:25 25,8 C 43 % 1022,5 hPa 0,0 mm 0,0 km/h (0 Bft) S-SO 202 0 min 0 W/m 12,3 C 25,8 C 0,0 km/h (0 Bft)
29/09/2011 19:30 25,4 C 45 % 1022,4 hPa 0,0 mm 0,0 km/h (0 Bft) S-SO 202 0 min 0 W/m 12,6 C 25,4 C 0,0 km/h (0 Bft)
29/09/2011 19:35 25,0 C 45 % 1022,4 hPa 0,0 mm 0,0 km/h (0 Bft) S-SO 202 0 min 0 W/m 12,2 C 25,0 C 0,0 km/h (0 Bft)
29/09/2011 19:40 24,6 C 45 % 1022,4 hPa 0,0 mm 0,0 km/h (0 Bft) S-SO 202 0 min 0 W/m 11,9 C 24,6 C 0,0 km/h (0 Bft)
29/09/2011 19:45 24,2 C 46 % 1022,5 hPa 0,0 mm 0,0 km/h (0 Bft) S-SO 202 0 min 0 W/m 11,8 C 24,2 C 0,0 km/h (0 Bft)
29/09/2011 19:50 23,8 C 47 % 1022,5 hPa 0,0 mm 0,0 km/h (0 Bft) S-SO 202 0 min 0 W/m 11,8 C 23,8 C 0,0 km/h (0 Bft)
29/09/2011 19:55 23,3 C 47 % 1022,5 hPa 0,0 mm 0,0 km/h (0 Bft) S-SO 202 0 min 0 W/m 11,3 C 23,3 C 0,0 km/h (0 Bft)
29/09/2011 20:00 22,9 C 47 % 1022,5 hPa 0,0 mm 0,0 km/h (0 Bft) S 180 0 min 0 W/m 11,0 C 22,9 C 0,0 km/h (0 Bft)
29/09/2011 20:05 22,5 C 48 % 1022,5 hPa 0,0 mm 0,0 km/h (0 Bft) SE 135 0 min 0 W/m 10,9 C 22,5 C 0,0 km/h (0 Bft)
29/09/2011 20:10 22,2 C 49 % 1022,6 hPa 0,0 mm 0,0 km/h (0 Bft) SE 135 0 min 0 W/m 11,0 C 22,2 C 0,0 km/h (0 Bft)
29/09/2011 20:15 21,8 C 49 % 1022,6 hPa 0,0 mm 0,0 km/h (0 Bft) SE 135 0 min 0 W/m 10,6 C 21,8 C 0,0 km/h (0 Bft)
29/09/2011 20:20 21,5 C 50 % 1022,7 hPa 0,0 mm 0,0 km/h (0 Bft) SE 135 0 min 0 W/m 10,6 C 21,5 C 0,0 km/h (0 Bft)
29/09/2011 20:25 21,2 C 50 % 1022,6 hPa 0,0 mm 0,0 km/h (0 Bft) SE 135 0 min 0 W/m 10,4 C 21,2 C 0,0 km/h (0 Bft)
29/09/2011 20:30 20,9 C 51 % 1022,7 hPa 0,0 mm 0,0 km/h (0 Bft) SE 135 0 min 0 W/m 10,4 C 20,9 C 0,0 km/h (0 Bft)
29/09/2011 20:35 20,6 C 52 % 1022,8 hPa 0,0 mm 0,0 km/h (0 Bft) SE 135 0 min 0 W/m 10,4 C 20,6 C 0,0 km/h (0 Bft)
29/09/2011 20:40 20,3 C 53 % 1022,8 hPa 0,0 mm 0,0 km/h (0 Bft) SE 135 0 min 0 W/m 10,4 C 20,3 C 0,0 km/h (0 Bft)
29/09/2011 20:45 20,0 C 54 % 1022,8 hPa 0,0 mm 0,0 km/h (0 Bft) SE 135 0 min 0 W/m 10,4 C 20,0 C 0,0 km/h (0 Bft)
29/09/2011 20:50 19,8 C 55 % 1022,8 hPa 0,0 mm 0,0 km/h (0 Bft) SE 135 0 min 0 W/m 10,5 C 19,8 C 0,0 km/h (0 Bft)
29/09/2011 20:55 19,5 C 55 % 1022,8 hPa 0,0 mm 0,0 km/h (0 Bft) SE 135 0 min 0 W/m 10,2 C 19,5 C 0,0 km/h (0 Bft)
29/09/2011 21:00 19,3 C 56 % 1022,9 hPa 0,0 mm 0,0 km/h (0 Bft) SE 135 0 min 0 W/m 10,3 C 19,3 C 0,0 km/h (0 Bft)
29/09/2011 21:05 19,1 C 57 % 1022,8 hPa 0,0 mm 0,0 km/h (0 Bft) SE 135 0 min 0 W/m 10,4 C 19,1 C 0,0 km/h (0 Bft)
_ Min-Heure 04:25 14:35 18:40 - 21:05 - - - - 08:45 04:25 21:05
Minimum _ 14,7 C 33 % 1022,3 hPa - 0,0 km/h (0 Bft) - - - - 9,3 C 14,7 C 0,0 km/h (0 Bft)
_ Max-Heure 15:10 02:30 12:30 21:05 13:25 - - 08:20 21:05 10:30 15:10 13:40
Maximum _ 29,6 C 83 % 1024,7 hPa 0,0 mm 13,0 km/h
S (3 Bft)
- - 2 min 0 W/m 14,2 C 29,6 C 16,6 km/h
S (3 Bft)
Moyenne _ 21,1 C 59 % 1023,4 hPa #0,0 mm 1,9 km/h (1 Bft) E - #8 min. 0 W/m 11,8 C 21,1 C 3,8 km/h (1 Bft)
Saint Bonnet de Bellac- Haute Vienne - France